Weather observations for the past three days for
Nunapitchuk Airport
Metric (Imperial)
Date Time (akdt) Wind (kph) Vis. (km) Weather Sky Cond. Temperature (ºC) Relative Humidity Wind Chill (°C) Heat Index (°C) Pressure Precipitation (cm)
Air Dwpt 6 hour altimeter (cm) sea level (mb) 1 hr 3 hr 6 hr
Max. Min.
16 04:56 NW 15 16.09 Fair CLR 12.8 10.6 87% 76.63 1021.5
16 03:56 NW 17 16.09 Fair CLR 12.8 10 20.6 12.8 83% 76.63 1021.7
16 02:56 N 19 16.09 Fair CLR 13.9 10 78% 76.63 1021.7
16 01:56 N 24 16.09 Fair CLR 15 10 72% 76.66 1021.8
16 00:56 N 26 16.09 Fair CLR 16.1 10 67% 76.63 1021.7
15 23:56 N 26 16.09 Fair CLR 17.8 11.1 65% 76.63 1021.5
15 22:56 NW 20 16.09 Fair CLR 18.9 11.1 61% 76.61 1021.2
15 21:56 NW 22 16.09 Fair CLR 20.6 10 22.2 20 51% 76.58 1021.0
15 20:56 NW 15 16.09 Fair CLR 21.7 7.8 41% 76.61 1021.2
15 19:56 SE 7 9.66 Fair with Haze CLR 21.7 7.8 41% 76.61 1021.3
15 18:56 W 7 11.27 Fair CLR 22.2 8.3 41% 76.63 1021.6
15 17:56 W 7 16.09 Fair CLR 21.1 7.2 41% 76.66 1021.8
15 16:56 NE 6 16.09 Fair CLR 20.6 6.7 41% 76.68 1022.2
15 15:56 NW 9 12.87 Fair CLR 20 7.8 20 14.4 45% 76.68 1022.4
15 14:56 NW 9 16.09 Fair CLR 18.9 8.9 52% 76.71 1022.6
15 13:56 N 11 16.09 Fair CLR 18.3 8.9 54% 76.73 1022.8
15 12:56 N 15 16.09 Fair CLR 17.2 8.9 58% 76.73 1023.1
15 11:56 N 13 16.09 Fair CLR 17.2 10 63% 76.76 1023.3
15 10:56 NE 15 16.09 Fair CLR 15.6 9.4 67% 76.78 1023.6
15 09:56 NE 15 16.09 Fair CLR 14.4 8.3 14.4 11.7 67% 76.78 1023.7
15 08:56 NE 17 16.09 Fair CLR 13.9 8.3 69% 76.78 1023.8
15 07:56 NE 17 16.09 Fair CLR 12.8 8.9 77% 76.81 1023.8
15 06:56 N 15 16.09 Fair CLR 11.7 8.3 80% 76.81 1023.9
15 05:56 N 19 16.09 Fair CLR 11.7 8.3 80% 76.81 1024.0
15 04:56 N 17 16.09 Fair CLR 11.7 9.4 86% 76.81 1023.9
15 03:56 N 15 16.09 Fair CLR 12.2 10 18.3 12.2 87% 76.81 1024.0
15 02:56 N 15 16.09 Fair CLR 13.3 10 81% 76.81 1023.9
15 01:56 N 20 16.09 Fair CLR 13.9 10 78% 76.81 1023.9
15 00:56 N 15 16.09 Fair CLR 15 10 72% 76.81 1024.0
14 23:56 N 17 16.09 Fair CLR 16.1 10 67% 76.78 1023.6
14 22:56 N 22 16.09 Fair CLR 17.2 8.3 56% 76.78 1023.5
14 21:56 NW 11 16.09 Fair CLR 18.3 8.3 18.9 16.7 52% 76.76 1023.4
14 20:56 NW 6 12.87 Fair CLR 18.3 7.2 49% 76.78 1023.5
14 19:56 N 6 8.05 Fair with Haze CLR 18.3 6.7 47% 76.78 1023.7
14 18:56 NW 6 12.87 Fair CLR 18.3 5.6 43% 76.81 1023.8
14 17:56 Calm 3.22 Fair with Haze CLR 17.8 3.3 38% 76.84 1024.2
14 16:56 NW 11 12.87 Fair CLR 17.2 4.4 43% 76.84 1024.4
14 15:56 Vrbl 9 16.09 Fair CLR 16.1 6.1 16.7 12.2 52% 76.89 1024.8
14 14:56 NE 7 16.09 Fair CLR 16.1 7.8 58% 76.89 1025.0
14 13:56 NE 7 16.09 Fair CLR 15.6 7.2 58% 76.89 1025.0
14 12:56 E 7 16.09 Fair CLR 15 7.8 62% 76.91 1025.2
14 11:56 Calm 12.87 Fair CLR 14.4 7.2 62% 76.94 1025.5
14 10:56 E 6 9.66 Fair with Haze CLR 13.3 8.9 75% 76.94 1025.6
14 09:56 E 6 9.66 Fair with Haze CLR 12.2 8.3 12.2 9.4 77% 76.94 1025.7
14 08:56 E 7 16.09 Fair CLR 11.1 7.8 80% 76.94 1025.7
14 07:56 E 6 16.09 Fair CLR 10.6 7.8 83% 76.94 1025.6
14 06:56 NE 9 16.09 Fair CLR 10 7.2 83% 9 76.94 1025.6
14 05:56 NE 11 16.09 Fair CLR 9.4 6.7 83% 8 76.94 1025.6
14 04:56 NE 13 16.09 Fair CLR 10 6.7 80% 8 76.94 1025.5
14 03:56 NE 11 16.09 Fair CLR 10 6.7 13.3 10 80% 9 76.94 1025.5
14 02:56 N 11 16.09 Fair CLR 10 7.2 83% 9 76.91 1025.4
14 01:56 N 15 16.09 Fair CLR 11.1 7.8 80% 76.91 1025.5
14 00:56 NW 13 16.09 Fair CLR 11.7 7.8 77% 76.91 1025.2
13 23:56 NW 9 12.87 Fair CLR 12.2 6.7 69% 76.89 1024.9
13 22:56 Calm 16.09 Fair CLR 12.8 5.6 62% 76.86 1024.7
13 21:56 NW 7 16.09 Fair CLR 13.3 6.1 14.4 11.1 62% 76.86 1024.7
13 20:56 N 9 16.09 Fair CLR 13.3 6.1 62% 76.86 1024.7
13 19:56 NW 9 16.09 Fair CLR 13.9 5.6 58% 76.86 1024.7
13 18:56 Vrbl 6 8.05 Fair with Haze CLR 13.3 5.6 60% 76.86 1024.7
13 17:56 Vrbl 6 12.87 Fair CLR 13.9 4.4 53% 76.89 1024.8
13 16:56 Vrbl 6 16.09 Fair CLR 12.2 3.9 57% 76.89 1025.1
13 14:56 SW 13 16.09 Partly Cloudy SCT024 11.1 5 66% 76.91 1025.3
Date Time (akdt) Wind (kph) Vis. (km) Weather Sky Cond. Air Dwpt Max. Min. Relative Humidity Wind Chill (°C) Heat Index (°C) altimeter (cm) sea level (mb) 1 hr 3 hr 6 hr
6 hour
Temperature (ºC) Pressure Precipitation (cm)